Weather in Zhelezinka

Kazakhstan     53°32′18″N   75°19′15″E
temp.,
°C
wind,
m/s
gust,
m/s
humid.,
%
clouds,
%
prec.,
mm/h
press.,
hPa
HPBL,
m
17 may, mon
mon1700:00+20n34555 0.1 101547
03:00+18nnw34625 0.0 101553
06:00+17nnw367014 0.0 1017109
09:00+22nnw465027 0.0 1018649
12:00+26nw34355 0.0 10171156
15:00+31w58267 0.0 10153068
18:00+31w582333 0.0 10131752
21:00+25wnw333696 0.0 101239
18 may, tue
tue1800:00+22wsw464387 0.0 101286
03:00+22wsw474045 0.0 1011111
06:00+20w4115030 0.0 1010197
09:00+25nw58355 0.0 1010595
12:00+28nw683135 0.0 10091470
15:00+29nw7102741 0.0 10083061
18:00+27nw8103099 0.0 10072601
21:00+21nne81247100 0.0 1008559
19 may, wed
wed1900:00+18nnw3667100 0.1 1008227
03:00+15nne6982100 0.0 1009563
06:00+13n7978100 0.0 1011691
09:00+12nne7977100 0.1 1013871
12:00+13nne7963100 0.1 10141302
15:00+15nne7847100 0.1 10161563
18:00+16ne6836100 0.1 10162134
21:00+13nne593846 0.0 1017468
20 may, thu
thu2000:00+11n474515 0.0 1018242
03:00+8n4106225 0.0 1019255
06:00+7n486390 0.0 1021338
09:00+10n683686 0.0 10221460
12:00+12n67255 0.0 10231731
15:00+15nnw672153 0.0 10221886
18:00+15nnw572380 0.0 10221970
21:00+11ene2252100 0.3 1022162
21 may, fri
fri2100:00+11sse61049100 0.4 1019420
03:00+11sse5744100 0.2 1017194
06:00+14w1361100 0.3 101786
09:00+16nnw4669100 0.0 1018464
12:00+20n465316 0.0 10191111
15:00+23n34380 0.0 10191290
18:00+25nnw35375 0.0 10191333
21:00+21s22481 0.0 101811